[[{"header":{"parameterUnit":"m.s-1","parameterCategory":1,"la1":30.2991,"la2":30.254,"lo1":-89.0895,"lo2":-89.0444,"dy":0.0017,"dx":0.0017,"nx":28,"ny":28,"refTime":"2025-12-06T09:00:00:Z","depth":0,"parameterNumber":2,"parameterNumberName":"U-component_of_WINDS"},"data":[0,0,0,0,0,0,0,0,0,0,0,0,0,0,0,0,0,0,0,0,0,0,0,0,0,0,0,0,0,0,0,0,0,0,0,0,0,0,0,0,0,0,0,0,0,0,0,0,0,0,0,0,0,0,0,0,0,0,0.6927,0.6926,0,0.6866,0.6865,0.6865,0.6847,0.6848,0.6848,0.6848,0.6784,0.6782,0.678,0,0,0,0,0,0,0,0,0,0,0,0,0,0.7027,0.7025,0.6927,0.6926,0.6925,0.6866,0.6865,0.6864,0.6847,0.6848,0.6848,0.6848,0.6785,0.6783,0.678,0,0,0,0,0,0,0,0,0,0,0,0,0,0.6976,0.7024,0.6927,0.6909,0.6907,0.6866,0.6865,0.6864,0.6847,0.6848,0.6848,0.6849,0.6786,0.6783,0.678,0.6751,0,0,0.6771,0.6769,0,0,0,0,0,0,0,0,0.6979,0.6973,0.6913,0.6911,0.6908,0.6865,0.6877,0.6826,0.6847,0.687,0.6848,0.6849,0.6811,0.6806,0.6793,0.6748,0.6745,0.677,0.6769,0.6767,0.6766,0,0,0,0,0,0,0,0.6983,0.6975,0.6903,0.6912,0.6909,0.6904,0.6898,0.6867,0.6838,0.6868,0.6867,0.686,0.6809,0.6796,0.6791,0.6745,0.6771,0.6768,0.6766,0.6765,0.6674,0.6673,0,0,0,0,0,0,0.6989,0.6978,0.6904,0.6901,0.6946,0.6902,0.6895,0.6878,0.6838,0.6833,0.6859,0.6859,0.6801,0.6795,0.6789,0.6753,0.6767,0.6765,0.6763,0.6674,0.6674,0.6673,0,0,0,0,0,0,0.6991,0.6983,0.6907,0.6939,0.6929,0.69,0.6881,0.6877,0.6863,0.6832,0.6826,0.6851,0.6801,0.6793,0.6761,0.675,0.6763,0.676,0.6675,0.6674,0.6673,0.668,0,0,0,0,0,0,0.6994,0.6984,0.6973,0.6939,0.6927,0.688,0.6881,0.6875,0.6858,0.6857,0.6823,0.6817,0.6801,0.6766,0.6758,0.6747,0.6758,0.6676,0.6675,0.6674,0.6681,0.668,0.6679,0,0,0,0,0,0.6998,0.6976,0.6972,0.6963,0.6913,0.6879,0.6873,0.6855,0.6857,0.6846,0.6826,0.6818,0.6753,0.6762,0.6754,0.6741,0.6676,0.6675,0.6674,0.6681,0.668,0.6679,0,0,0,0,0,0,0.7009,0.6972,0.6966,0.6933,0.691,0.6877,0.6861,0.6854,0.6828,0.6828,0.6807,0.6799,0.6768,0.6752,0.6763,0.6712,0.6715,0.6711,0.6723,0.6722,0.6721,0.6725,0.6756,0,0,0,0,0,0.7007,0.6984,0.6953,0.6926,0.6915,0.689,0.6875,0.6863,0.6838,0.6827,0.6805,0.678,0.6754,0.6737,0.6711,0.6679,0.6671,0.6666,0.6665,0.6664,0.6662,0.6643,0.6641,0.6669,0.6669,0.6669,0,0,0.7004,0.6981,0.6967,0.6928,0.6908,0.6884,0.6882,0.6856,0.6838,0.6823,0.6791,0.6775,0.6745,0.6713,0.6697,0.6698,0.6652,0.6663,0.6662,0.666,0.6642,0.6639,0.6637,0.6668,0.6668,0.6668,0,0,0.6985,0.6966,0.6942,0.6922,0.6893,0.6877,0.6872,0.684,0.6828,0.6796,0.6785,0.6763,0.6718,0.6698,0.6682,0.6658,0.665,0.665,0.6644,0.6627,0.6624,0.6622,0.6613,0.661,0.6647,0.6647,0.6647,0,0.6984,0.6947,0.693,0.6905,0.6888,0.6876,0.6851,0.6833,0.6797,0.6785,0.6787,0.6731,0.6711,0.6674,0.6668,0.6655,0.6648,0.6653,0.6626,0.6624,0.6622,0.6613,0.661,0.6648,0.6648,0.6648,0.6648,0,0.6948,0.6923,0.6907,0.6873,0.6854,0.683,0.6809,0.6792,0.6783,0.6767,0.6735,0.671,0.6679,0.667,0.666,0.6631,0.6633,0.6631,0.6633,0.662,0.6611,0.6607,0.6648,0.6648,0.6648,0.6648,0,0,0.6932,0.689,0.6885,0.6869,0.6837,0.6817,0.6792,0.6763,0.6749,0.6725,0.6703,0.6667,0.6665,0.6647,0.6635,0.662,0.6602,0.6619,0.6618,0.6616,0.6569,0.657,0.6566,0.6597,0.6596,0.6596,0.6571,0,0.6909,0.6864,0.6849,0.6811,0.6788,0.6776,0.6755,0.6733,0.6717,0.6695,0.6678,0.6653,0.6652,0.6641,0.6626,0.6607,0.6592,0.6609,0.6576,0.6575,0.6583,0.6562,0.6562,0.654,0.6568,0.6567,0.6567,0,0.6875,0.6851,0.6812,0.6783,0.6773,0.6754,0.6726,0.6705,0.668,0.667,0.6651,0.664,0.6614,0.6619,0.6582,0.6594,0.658,0.6569,0.6568,0.6563,0.6569,0.6556,0.6533,0.6529,0.6561,0.6562,0.6562,0,0.6867,0.6825,0.6797,0.6784,0.675,0.6737,0.6722,0.6697,0.6681,0.6657,0.6646,0.6619,0.6604,0.6584,0.6566,0.6571,0.6531,0.6535,0.6522,0.6522,0.6512,0.6513,0.6486,0.6505,0.6505,0.6505,0.6505,0,0.6842,0.6818,0.6793,0.6775,0.6748,0.6731,0.6705,0.6689,0.6668,0.6647,0.6635,0.6616,0.6594,0.6572,0.6558,0.653,0.6524,0.6515,0.6511,0.6515,0.6516,0.6505,0.6505,0.6504,0.6505,0.6505,0.6505,0,0.6828,0.681,0.6777,0.6748,0.6741,0.6722,0.6697,0.6679,0.6665,0.6638,0.6631,0.6607,0.6581,0.6562,0.6527,0.6518,0.6487,0.6484,0.6496,0.6494,0.6482,0.6483,0.6446,0.644,0.6464,0.6464,0.6463,0,0.6812,0.6794,0.6763,0.6749,0.6734,0.671,0.6694,0.6677,0.666,0.6631,0.6617,0.659,0.6567,0.6525,0.6504,0.6478,0.6474,0.6463,0.647,0.6475,0.6473,0.6474,0.6472,0.6461,0.6461,0.6461,0.6461,0,0.6787,0.6779,0.6756,0.673,0.6711,0.669,0.6668,0.6657,0.6636,0.6618,0.6591,0.6574,0.6539,0.6512,0.6484,0.6469,0.6461,0.6459,0.6455,0.6458,0.6465,0.6461,0.6492,0.646,0.646,0.646,0.646,0.646,0.6771,0.6754,0.673,0.6705,0.6687,0.6668,0.665,0.6634,0.6611,0.6582,0.6573,0.6545,0.6521,0.6483,0.6468,0.6445,0.6446,0.6439,0.6438,0.6436,0.6436,0.647,0.644,0.644,0.644,0.644,0.644,0,0.6744,0.6728,0.6706,0.6676,0.6657,0.6653,0.6629,0.6613,0.6589,0.6567,0.6546,0.6515,0.6489,0.6468,0.6441,0.6428,0.6423,0.6421,0.6421,0.6418,0.6437,0.6443,0.6425,0.6425,0.6425,0.6425,0.6425,0.6425,0.6728,0.6699,0.6689,0.6652,0.6637,0.6609,0.6596,0.6578,0.6561,0.6528,0.6507,0.6493,0.6472,0.6444,0.642,0.6414,0.6405,0.6403,0.6396,0.6415,0.6416,0.6418,0.6424,0.6401,0.6401,0.6379,0.6379,0.6378]},{"header":{"parameterUnit":"m.s-1","parameterCategory":1,"la1":30.2991,"la2":30.254,"lo1":-89.0895,"lo2":-89.0444,"dy":0.0017,"dx":0.0017,"nx":28,"ny":28,"refTime":"2025-12-06T09:00:00:Z","depth":0,"parameterNumber":3,"parameterNumberName":"V-component_of_WINDS"},"data":[0,0,0,0,0,0,0,0,0,0,0,0,0,0,0,0,0,0,0,0,0,0,0,0,0,0,0,0,0,0,0,0,0,0,0,0,0,0,0,0,0,0,0,0,0,0,0,0,0,0,0,0,0,0,0,0,0,0,-6.7216,-6.7218,0,-6.7355,-6.7356,-6.7358,-6.73,-6.7297,-6.7294,-6.7291,-6.7428,-6.7435,-6.7441,0,0,0,0,0,0,0,0,0,0,0,0,0,-6.6901,-6.6907,-6.7216,-6.7218,-6.722,-6.7354,-6.7356,-6.7358,-6.7301,-6.7297,-6.7293,-6.7289,-6.7426,-6.7434,-6.7442,0,0,0,0,0,0,0,0,0,0,0,0,0,-6.7038,-6.6909,-6.7216,-6.7207,-6.7208,-6.7354,-6.7356,-6.7359,-6.7302,-6.7297,-6.7292,-6.7287,-6.7423,-6.7433,-6.7443,-6.7604,0,0,-6.7474,-6.7478,0,0,0,0,0,0,0,0,-6.703,-6.705,-6.7207,-6.7208,-6.7209,-6.7305,-6.7295,-6.7441,-6.7303,-6.7266,-6.729,-6.7285,-6.7391,-6.7403,-6.744,-6.761,-6.7616,-6.7475,-6.7481,-6.7485,-6.7488,0,0,0,0,0,0,0,-6.7021,-6.7043,-6.7271,-6.7209,-6.7211,-6.7196,-6.721,-6.7323,-6.7354,-6.7269,-6.7265,-6.7282,-6.739,-6.743,-6.7443,-6.7618,-6.7474,-6.7483,-6.749,-6.7494,-6.793,-6.7936,0,0,0,0,0,0,-6.7012,-6.7036,-6.7266,-6.7275,-6.7106,-6.7206,-6.7222,-6.7279,-6.7353,-6.736,-6.7286,-6.7279,-6.7416,-6.7431,-6.7447,-6.7643,-6.7485,-6.7495,-6.75,-6.7925,-6.7931,-6.7937,0,0,0,0,0,0,-6.7005,-6.7033,-6.7261,-6.7155,-6.7182,-6.7217,-6.7282,-6.7285,-6.7324,-6.7366,-6.7371,-6.7322,-6.7412,-6.7433,-6.7566,-6.7646,-6.7499,-6.7508,-6.7918,-6.7927,-6.7934,-6.8033,0,0,0,0,0,0,-6.6996,-6.7031,-6.7093,-6.7156,-6.7188,-6.7379,-6.7287,-6.7291,-6.7343,-6.7334,-6.7401,-6.7407,-6.741,-6.7552,-6.7576,-6.7658,-6.7516,-6.7911,-6.7922,-6.7932,-6.8023,-6.8044,-6.8062,0,0,0,0,0,-6.6985,-6.7113,-6.7096,-6.7124,-6.7267,-6.7383,-6.7401,-6.7404,-6.7349,-6.7412,-6.7439,-6.7405,-6.7634,-6.7566,-6.7593,-6.7679,-6.7906,-6.7919,-6.7931,-6.8014,-6.804,-6.8061,0,0,0,0,0,0,-6.7056,-6.7122,-6.7103,-6.7256,-6.7315,-6.7373,-6.7452,-6.743,-6.7505,-6.7494,-6.7492,-6.7508,-6.7646,-6.7675,-6.7598,-6.784,-6.7761,-6.778,-6.7815,-6.784,-6.7859,-6.7849,-6.7525,0,0,0,0,0,-6.709,-6.718,-6.7232,-6.7362,-6.7393,-6.7418,-6.7468,-6.7465,-6.7526,-6.755,-6.7586,-6.7645,-6.7731,-6.7787,-6.7867,-6.8027,-6.8041,-6.8099,-6.8119,-6.8135,-6.8151,-6.8239,-6.8266,-6.7978,-6.7978,-6.7978,0,0,-6.716,-6.7207,-6.7263,-6.7377,-6.7423,-6.7516,-6.7439,-6.754,-6.7609,-6.7564,-6.7694,-6.7723,-6.7788,-6.7936,-6.8003,-6.7965,-6.8234,-6.815,-6.8163,-6.8171,-6.8255,-6.8282,-6.8307,-6.7987,-6.7985,-6.7984,0,0,-6.7336,-6.738,-6.7494,-6.7542,-6.7612,-6.7628,-6.7656,-6.7719,-6.7737,-6.7867,-6.7837,-6.7918,-6.8064,-6.8113,-6.8157,-6.8355,-6.8327,-6.8381,-6.8482,-6.8569,-6.8592,-6.8612,-6.8684,-6.8709,-6.8397,-6.8397,-6.8397,0,-6.7413,-6.7554,-6.7555,-6.766,-6.7712,-6.7678,-6.7794,-6.784,-6.7932,-6.7968,-6.7925,-6.811,-6.8151,-6.8311,-6.836,-6.8396,-6.8428,-6.8373,-6.8588,-6.8609,-6.8627,-6.8696,-6.8723,-6.8403,-6.8402,-6.8402,-6.8401,0,-6.7647,-6.7745,-6.7828,-6.7922,-6.7982,-6.8092,-6.811,-6.8171,-6.8164,-6.8184,-6.8318,-6.8367,-6.8458,-6.8496,-6.8488,-6.8655,-6.863,-6.8588,-6.8509,-6.8661,-6.8726,-6.8752,-6.8412,-6.841,-6.8408,-6.8406,0,0,-6.787,-6.7965,-6.7995,-6.8038,-6.8114,-6.819,-6.8298,-6.839,-6.8443,-6.8508,-6.86,-6.8726,-6.8688,-6.8738,-6.8736,-6.8812,-6.8967,-6.876,-6.8762,-6.8798,-6.9157,-6.9189,-6.922,-6.8949,-6.8954,-6.8958,-6.9152,0,-6.8053,-6.8245,-6.8251,-6.8427,-6.8518,-6.8488,-6.8583,-6.864,-6.8663,-6.8743,-6.8767,-6.8858,-6.88,-6.8831,-6.8904,-6.8933,-6.9039,-6.8919,-6.9034,-6.9039,-6.902,-6.9253,-6.9287,-6.9468,-6.9177,-6.9181,-6.9184,0,-6.8291,-6.8367,-6.8553,-6.8619,-6.8657,-6.8743,-6.8828,-6.8905,-6.8969,-6.898,-6.9038,-6.9025,-6.9136,-6.9054,-6.9208,-6.9126,-6.9173,-6.9195,-6.9202,-6.9213,-6.9121,-6.9272,-6.9525,-6.9553,-6.9224,-6.9221,-6.9218,0,-6.8438,-6.8586,-6.8717,-6.8754,-6.8834,-6.8895,-6.893,-6.899,-6.9045,-6.9119,-6.9155,-6.9241,-6.9288,-6.9354,-6.9364,-6.9303,-6.9519,-6.9437,-6.9532,-6.9532,-6.9579,-6.9576,-6.9845,-6.9608,-6.9608,-6.9607,-6.9607,0,-6.8642,-6.8757,-6.8784,-6.8865,-6.8994,-6.8999,-6.9126,-6.9156,-6.921,-6.9296,-6.9275,-6.9356,-6.9364,-6.9448,-6.9456,-6.9583,-6.9604,-6.9617,-6.9618,-6.962,-6.9618,-6.9651,-6.9639,-6.9614,-6.9613,-6.9611,-6.961,0,-6.8827,-6.885,-6.8991,-6.9056,-6.9075,-6.9167,-6.9222,-6.9299,-6.932,-6.943,-6.9456,-6.9489,-6.9586,-6.9604,-6.9717,-6.9723,-6.9876,-6.9863,-6.9855,-6.9854,-6.9948,-6.994,-7.0248,-7.029,-7.0025,-7.0027,-7.0029,0,-6.8957,-6.9045,-6.912,-6.9177,-6.9217,-6.9309,-6.9366,-6.9375,-6.9435,-6.9517,-6.9584,-6.968,-6.9757,-6.9914,-6.9948,-7.0036,-7.0026,-7.0128,-7.0039,-7.0039,-7.003,-7.0025,-7.0034,-7.0145,-7.0148,-7.0151,-7.0152,0,-6.9184,-6.9192,-6.9276,-6.9366,-6.9435,-6.9505,-6.9571,-6.9619,-6.9636,-6.9705,-6.9806,-6.9866,-6.9985,-7.008,-7.0168,-7.0203,-7.0182,-7.0181,-7.0207,-7.0211,-7.0203,-7.021,-6.9903,-7.0173,-7.0171,-7.017,-7.0169,-7.0168,-6.9347,-6.9425,-6.9491,-6.9586,-6.9638,-6.9701,-6.9778,-6.981,-6.9894,-6.9993,-6.9992,-7.0103,-7.0167,-7.0283,-7.0325,-7.0411,-7.0378,-7.0417,-7.0427,-7.0436,-7.0446,-7.0189,-7.0427,-7.0426,-7.0426,-7.0425,-7.0425,0,-6.9575,-6.9617,-6.9704,-6.9799,-6.9875,-6.9849,-6.9922,-6.9986,-7.0084,-7.0146,-7.0224,-7.0341,-7.0434,-7.0476,-7.0568,-7.0629,-7.0622,-7.0653,-7.0649,-7.0658,-7.0469,-7.0438,-7.0658,-7.0658,-7.0658,-7.0658,-7.0658,-7.0658,-6.9703,-6.9835,-6.9851,-7.0008,-7.0048,-7.0159,-7.0203,-7.0261,-7.0311,-7.0443,-7.0521,-7.0549,-7.0603,-7.0699,-7.0784,-7.0794,-7.0829,-7.0866,-7.0872,-7.0695,-7.0671,-7.0649,-7.0619,-7.0873,-7.0874,-7.1053,-7.1055,-7.1056]}]]